Hyannis, MA

1:23 AM EST on February 26, 2017 (GMT -0500)
Barnstable Municipal-Boardman-Polando Field

Weather History for KHYA - November, 2014

Change the Weather History Date:

Sunday, November 16, 2014

  Actual Average Record
Temperature  
Mean Temperature 32 °F -  
Max Temperature 44 °F 49 °F 70 °F (1993)
Min Temperature 21 °F 35 °F 14 °F (1933)
Degree Days  
Heating Degree Days 32    
Moisture  
Dew Point 26 °F    
Average Humidity 70    
Maximum Humidity 86    
Minimum Humidity 49    
Precipitation  
Precipitation 0.00 in - - ()
Sea Level Pressure  
Sea Level Pressure 30.29 in    
Wind  
Wind Speed 1 mph (ESE)    
Max Wind Speed 5 mph    
Max Gust Speed -    
Visibility 10 miles    
Events Rain    
Averages and records for this station are not official NWS values.
T = Trace of Precipitation, MM = Missing Value Source: NWS Daily Summary

Daily Weather History Graph

Daily Weather History Graph

Search for Another Location

Airport or City:

Trip Planner

Search our weather history database for the weather conditions in past years. The results will help you decide how hot, cold, wet, or windy it might be!

Date:

Astronomy

Nov. 16, 2014 Rise Set
Actual Time 6:31 AM EST 4:19 PM EST
Civil Twilight 6:01 AM EST 4:49 PM EST
Nautical Twilight 5:27 AM EST 5:23 PM EST
Astronomical Twilight 4:54 AM EST 5:56 PM EST
Moon 12:30 AM EST (11/16) 1:16 PM EST (11/16)
Length of Visible Light 10h 48m
Length of Day
9h 48m
Waning Crescent, 31% of the Moon is Illuminated
Nov 16
Waning Crescent
Nov 22
New
Nov 29
First Quarter
Dec 6
Full
Dec 14
Last Quarter

Hourly Weather History & Observations

Time (EST) Temp. Windchill Dew Point Humidity Pressure Visibility Wind Dir Wind Speed Gust Speed Precip Events Conditions
12:56 AM 30.0 °F 26.5 °F 17.1 °F 59% 30.33 in 10.0 mi WNW 3.5 mph - N/A   Clear
1:56 AM 28.0 °F 24.2 °F 18.0 °F 66% 30.35 in 10.0 mi WNW 3.5 mph - N/A   Clear
2:56 AM 24.1 °F - 18.0 °F 77% 30.35 in 10.0 mi Calm Calm - N/A   Clear
3:56 AM 21.9 °F - 18.0 °F 85% 30.36 in 10.0 mi Calm Calm - N/A   Clear
4:56 AM 21.9 °F - 17.1 °F 82% 30.38 in 10.0 mi Calm Calm - N/A   Clear
5:56 AM 23.0 °F - 18.0 °F 81% 30.39 in 10.0 mi Calm Calm - N/A   Clear
6:56 AM 25.0 °F - 19.0 °F 78% 30.40 in 10.0 mi Calm Calm - N/A   Clear
7:56 AM 30.9 °F - 25.0 °F 79% 30.40 in 10.0 mi Calm Calm - N/A   Clear
8:56 AM 37.0 °F - 24.1 °F 59% 30.38 in 10.0 mi Calm Calm - N/A   Clear
9:56 AM 39.0 °F - 21.9 °F 50% 30.39 in 10.0 mi Calm Calm - N/A   Mostly Cloudy
10:56 AM 39.0 °F 36.8 °F 23.0 °F 53% 30.35 in 10.0 mi SE 3.5 mph - N/A   Overcast
11:56 AM 39.9 °F 37.8 °F 21.9 °F 49% 30.32 in 10.0 mi ESE 3.5 mph - N/A   Overcast
12:56 PM 43.0 °F - 25.0 °F 49% 30.28 in 10.0 mi Calm Calm - N/A   Overcast
1:56 PM 43.0 °F 40.3 °F 28.0 °F 56% 30.26 in 10.0 mi East 4.6 mph - N/A   Overcast
2:56 PM 44.1 °F - 30.0 °F 58% 30.26 in 10.0 mi Calm Calm - N/A   Overcast
3:56 PM 43.0 °F - 32.0 °F 65% 30.25 in 10.0 mi Calm Calm - N/A   Overcast
4:56 PM 42.1 °F - 32.0 °F 67% 30.24 in 10.0 mi Calm Calm - N/A   Overcast
5:56 PM 41.0 °F - 33.1 °F 73% 30.23 in 10.0 mi Calm Calm - N/A   Overcast
6:56 PM 41.0 °F - 34.0 °F 76% 30.22 in 10.0 mi Calm Calm - N/A   Overcast
7:56 PM 39.9 °F - 35.1 °F 83% 30.20 in 10.0 mi Calm Calm - N/A   Overcast
8:56 PM 41.0 °F - 35.1 °F 79% 30.19 in 10.0 mi Calm Calm - N/A   Overcast
9:56 PM 41.0 °F - 35.1 °F 79% 30.16 in 10.0 mi Calm Calm - N/A   Overcast
10:56 PM 41.0 °F - 36.0 °F 82% 30.14 in 10.0 mi Calm Calm - 0.00 in Rain Light Rain
11:56 PM 41.0 °F - 37.0 °F 86% 30.14 in 10.0 mi Calm Calm - 0.00 in   Overcast